EHI
0 0 0 0 0 0 0 0 0 0 0 0 0 0 0 0 0 0 1 3 5 4 3 3 3 3 3 3 4 4 5 7 7 5 4 3 4 4 4 4 2 1 0 0
0 0 0 0 0 0 0 0 0 0 0 0 0 0 0 0 0 1 2 4 5 4 3 3 3 3 3 3 4 4 6 8 7 5 3 3 3 4 4 4 2 1 0 0
0 0 0 0 0 0 0 0 0 0 0 0 0 0 0 0 1 2 3 4 5 3 3 4 4 4 4 3 4 5 6 6 6 4 3 2 3 4 4 3 2 1 0 0
0 0 0 0 0 0 0 0 0 0 0 0 0 0 0 0 1 1 2 3 3 2 2 4 5 5 4 4 3 4 4 4 4 4 3 2 2 3 3 3 2 1 0 0
0 0 0 0 0 0 0 0 0 0 0 0 0 0 0 0 0 0 1 1 1 0 1 2 3 4 4 3 3 3 3 3 3 4 3 2 2 3 3 3 2 1 0 0
0 0 0 0 0 0 0 0 0 0 0 0 0 0 0 0 0 0 0 0 0 0 0 1 2 3 3 3 3 3 3 3 3 3 3 3 3 4 3 2 1 0 0 0
0 0 0 0 0 0 0 0 0 0 0 0 0 0 0 0 0 0 0 0 0 0 0 1 2 3 3 3 3 3 3 3 3 3 3 3 3 4 3 1 0 0 0 0
0 0 0 0 0 0 0 0 0 0 0 0 0 0 0 0 0 0 0 0 0 0 0 1 2 2 3 3 3 3 3 3 3 3 3 3 3 3 2 1 0 0 0 0
0 0 0 0 0 0 0 0 0 0 0 0 0 0 0 0 0 0 0 0 0 0 0 0 1 1 1 2 3 3 3 3 3 3 3 3 3 2 1 0 0 0 0 0
0 0 0 0 0 0 0 0 0 0 0 0 0 0 0 0 0 0 0 0 0 0 0 0 0 0 0 1 3 3 3 3 3 3 3 3 3 1 0 0 0 0 0 0
0 0 0 0 0 0 0 0 0 0 0 0 0 0 0 0 0 0 0 0 0 0 0 0 0 0 0 1 3 3 3 3 3 3 3 3 2 1 0 0 0 1 0 0
0 0 0 0 0 0 0 0 0 0 0 0 0 0 0 0 0 0 0 0 0 0 0 0 0 0 1 2 3 3 3 3 3 4 3 3 2 1 0 0 0 0 0 0
0 0 0 0 0 0 0 0 0 0 0 0 0 0 0 0 0 0 0 0 0 0 0 0 0 0 1 2 3 3 3 3 4 5 4 3 2 1 0 0 0 0 0 0
0 0 0 0 0 0 0 0 0 0 0 0 0 0 0 0 0 0 0 0 0 0 0 1 1 1 1 3 3 3 3 3 4 5 5 4 2 1 0 0 0 0 0 0
0 0 0 0 0 0 0 0 0 0 0 0 0 0 0 0 0 0 0 0 0 0 0 1 2 3 3 3 3 3 3 3 3 4 4 4 2 1 0 0 0 0 0 0
0 0 0 0 0 0 0 0 0 0 0 0 0 0 0 0 0 0 0 0 0 0 0 1 2 3 3 3 3 2 3 2 1 1 3 3 2 1 0 0 0 0 0 0
0 0 0 0 0 0 0 0 0 0 0 0 0 0 0 0 0 0 0 0 0 0 0 0 1 3 3 2 1 1 1 1 1 0 1 2 1 0 0 0 0 0 0 0
0 0 0 0 0 0 0 0 0 0 0 0 0 0 0 0 0 0 0 0 0 0 0 0 1 2 3 1 0 0 0 0 0 0 0 0 0 0 0 0 0 0 0 0
0 0 0 0 0 0 0 0 0 0 0 0 0 0 0 0 0 0 0 0 0 0 0 0 1 2 2 1 0 0 0 0 0 0 0 0 0 0 0 0 0 0 0 0
0 0 0 0 0 0 0 0 0 0 0 0 0 0 0 0 0 0 0 0 0 0 0 0 0 1 1 0 0 0 0 0 0 0 0 0 0 0 0 0 0 0 0 0
0 0 0 0 0 0 0 0 0 0 0 0 0 0 0 0 0 0 0 0 0 0 0 0 0 0 0 0 0 0 1 1 0 1 1 0 0 0 0 0 0 0 0 0
0 0 0 0 0 0 0 0 0 0 0 0 0 0 0 0 0 0 0 0 0 0 0 0 0 0 0 0 0 1 2 2 2 2 2 1 1 1 1 1 0 0 0 0
0 0 0 0 0 0 0 0 0 0 0 0 0 0 0 0 0 0 0 0 0 0 0 0 0 0 0 0 0 1 3 3 3 3 3 2 2 2 2 1 0 0 0 0
0 0 0 0 0 0 0 0 0 0 0 0 0 0 0 0 0 0 0 0 0 0 0 0 0 0 0 0 1 2 3 3 3 3 3 1 1 1 1 1 0 0 0 0
0 0 0 0 0 0 0 0 0 0 0 0 0 0 0 0 0 0 0 0 0 0 0 0 0 0 0 1 2 3 3 2 2 2 2 1 0 0 0 0 0 0 0 0
0 0 0 0 0 0 0 0 0 0 0 0 0 0 0 0 0 0 0 0 0 0 0 0 0 0 0 1 2 2 1 1 1 1 1 0 0 0 0 0 0 0 0 0
0 0 0 0 0 0 0 0 0 0 0 0 0 0 0 0 0 0 0 0 0 0 0 0 0 0 0 0 1 1 0 0 0 0 0 0 0 0 0 0 0 0 0 0
Wind_Speed
10 9 8 9 10 9 9 9 8 7 6 4 1 1 2 1 2 2 3 3 2 2 2 2 1 1 1 1 1 1 1 1 1 1 1 1 1 1 0 1 1 1 0 0
10 10 9 11 11 10 10 9 9 8 7 2 2 2 1 1 2 1 1 2 2 2 2 2 2 1 1 1 0 1 2 1 1 1 1 1 1 0 0 0 1 1 1 1
8 9 9 10 8 8 7 7 7 7 3 1 1 1 2 2 2 1 0 0 1 2 1 2 2 2 2 1 1 1 2 2 2 2 2 1 1 1 0 0 0 1 1 1
7 9 10 3 1 1 3 5 3 2 1 1 1 1 2 2 1 1 1 1 0 0 0 0 1 1 2 2 1 1 1 1 2 2 2 2 1 0 0 0 0 0 1 1
5 8 8 4 2 1 3 5 3 3 1 1 2 1 1 2 2 2 1 1 1 0 1 1 1 1 1 2 1 1 1 1 1 1 2 2 1 1 1 1 1 1 1 1
6 7 7 1 2 2 2 3 1 2 2 2 1 2 1 3 2 2 2 2 1 1 1 1 1 1 1 2 2 1 1 1 1 1 1 1 1 2 1 1 1 1 1 1
8 8 6 1 1 1 2 1 3 4 3 2 2 2 2 3 3 2 2 2 2 2 1 1 1 1 1 1 1 1 1 1 1 1 1 1 1 1 1 1 1 1 1 1
6 8 5 1 0 1 2 4 4 4 4 3 3 2 2 2 2 2 1 1 2 1 1 1 1 1 0 0 1 1 1 1 1 1 1 1 1 1 1 1 1 1 1 1
3 2 1 2 1 2 3 3 3 4 4 3 2 1 1 1 1 1 1 1 1 1 1 0 0 1 0 0 1 1 1 1 1 1 1 1 1 1 1 1 1 1 1 1
4 3 2 1 1 1 2 3 3 3 3 2 1 1 1 0 0 0 0 1 1 1 0 0 0 0 0 0 1 1 1 1 1 1 1 1 1 1 1 1 1 1 1 1
6 6 4 2 1 1 1 2 3 3 3 2 2 1 1 1 1 1 1 0 1 1 1 0 1 1 1 1 0 1 1 1 1 1 0 0 0 1 1 1 2 2 2 2
6 5 5 3 2 1 2 2 2 2 3 3 2 1 1 1 1 1 1 0 1 1 1 0 1 1 1 1 1 1 1 1 1 1 1 0 1 1 1 1 2 2 2 2
5 4 4 4 3 2 2 2 2 2 2 2 2 1 1 0 0 1 1 0 0 1 0 0 1 0 1 1 1 0 1 1 1 1 1 1 1 1 1 1 1 1 2 2
4 3 4 3 2 2 3 3 2 2 2 2 1 1 0 0 0 0 1 0 0 1 0 0 0 0 1 1 1 1 1 1 1 1 1 1 2 2 2 1 1 1 2 2
5 4 4 3 2 2 2 2 2 2 2 2 1 1 0 0 0 0 0 1 1 1 1 0 0 0 1 1 1 1 2 1 1 1 1 2 2 1 1 2 2 1 1 1
4 4 3 3 3 3 2 3 3 3 2 1 1 1 0 0 1 0 0 1 1 0 0 0 0 0 1 1 1 1 1 2 2 1 2 1 1 1 1 2 2 2 2 1
5 5 4 4 4 4 3 3 2 2 2 2 1 0 0 0 0 0 0 0 0 0 0 0 1 1 1 1 1 1 1 1 2 2 1 1 1 1 1 2 2 2 2 2
4 4 4 4 3 3 2 2 2 2 2 2 1 1 1 1 1 1 1 1 1 0 0 1 1 1 1 1 1 1 1 1 1 2 1 1 1 1 2 2 2 2 1 1
4 4 3 2 2 2 2 2 2 2 1 1 1 1 2 2 1 1 0 1 1 1 0 1 1 1 1 1 2 1 1 2 1 1 1 2 2 2 1 2 2 2 2 2
2 1 1 1 2 2 2 2 1 1 1 1 1 1 1 1 1 1 0 1 1 0 1 0 1 1 1 1 2 1 2 2 2 1 1 1 2 2 2 2 2 2 2 2
2 1 1 1 1 2 2 2 1 1 1 2 2 2 1 1 1 1 1 1 0 1 1 0 1 1 1 2 2 2 2 2 2 2 1 2 2 2 2 2 2 2 2 2
2 1 1 1 1 1 1 1 1 1 1 1 1 1 1 1 1 1 1 1 1 1 0 0 0 1 2 3 1 2 2 2 2 2 2 2 2 2 2 3 3 2 2 2
2 1 1 1 1 1 1 1 1 1 1 1 1 1 1 1 1 1 1 0 1 0 0 0 1 3 4 2 2 2 2 2 2 2 2 2 2 2 2 3 2 2 2 2
2 2 2 2 1 1 1 1 1 1 0 1 1 1 1 1 1 1 0 1 1 1 1 2 3 4 4 2 2 2 2 2 2 2 2 2 2 2 2 2 2 2 2 3
2 2 2 2 2 2 1 1 1 1 0 1 1 1 1 1 1 1 1 1 2 2 1 3 4 5 3 2 2 2 2 2 2 2 2 2 2 2 2 2 2 2 2 3
2 2 2 2 2 1 1 1 1 1 1 1 1 0 0 0 0 0 0 1 2 3 2 2 2 3 2 2 2 2 2 2 3 3 2 2 3 3 2 3 4 3 3 3
3 2 2 1 1 1 1 1 1 1 1 1 1 0 0 1 1 1 1 1 1 2 2 2 2 2 2 2 2 2 2 2 2 2 2 2 3 3 3 3 3 3 3 3
Wind_Direction
283 287 289 282 270 257 254 258 262 269 278 286 249 139 134 135 143 144 147 154 153 159 166 161 154 154 122 110 110 135 142 158 178 163 128 113 100 90 344 314 297 309 334 109
280 273 268 267 265 258 252 255 258 263 268 301 341 54 69 111 116 138 155 164 165 177 176 181 188 176 165 127 156 168 147 139 135 133 125 121 116 102 14 337 326 346 330 83
278 284 278 262 255 251 256 250 249 258 269 1 343 30 33 58 96 98 69 118 177 186 191 205 197 182 166 162 182 174 149 147 135 134 129 118 112 59 307 278 324 300 297 140
277 278 260 269 357 264 266 277 283 282 5 36 1 32 73 64 80 72 37 28 66 112 132 239 150 153 144 146 169 152 129 135 142 145 147 145 140 149 302 323 343 322 303 181
266 272 273 265 277 264 260 270 292 290 311 34 49 357 49 63 67 60 56 50 68 138 128 121 125 133 153 171 179 165 165 148 139 145 144 145 162 198 238 233 254 271 268 209
261 272 271 299 65 35 305 256 56 10 0 12 352 285 3 52 58 59 63 71 71 69 75 94 95 122 169 186 186 191 186 160 148 153 153 163 192 216 220 214 246 253 259 222
249 259 266 353 18 287 259 35 50 20 2 352 315 329 27 38 47 58 57 57 59 69 57 46 90 127 195 184 193 192 158 156 161 174 177 184 209 239 214 207 246 247 242 237
240 248 249 84 215 312 17 39 31 14 2 356 360 23 26 39 50 53 54 64 66 73 74 63 77 132 177 244 126 113 131 159 174 177 193 165 169 243 242 212 237 242 238 239
257 262 62 99 32 29 18 11 7 1 350 359 2 27 20 31 42 37 40 85 81 82 84 96 94 100 209 265 117 129 184 213 210 199 193 170 177 209 233 220 227 239 227 232
272 269 283 286 315 17 351 344 356 348 332 328 320 329 340 312 322 17 286 127 112 106 187 179 54 46 285 4 117 182 212 222 225 202 201 195 179 194 209 214 217 221 226 232
272 278 292 283 290 306 335 335 332 333 332 328 310 282 270 269 256 243 251 152 144 176 203 153 57 53 11 350 45 233 230 234 237 187 191 189 173 238 219 226 205 207 215 211
264 283 291 300 332 321 311 307 319 320 317 311 307 270 269 276 270 263 256 177 163 155 146 147 92 73 354 304 255 227 255 276 269 228 213 186 216 295 310 224 196 206 210 204
286 304 304 308 326 333 310 303 304 297 296 304 307 283 268 269 260 256 255 231 171 126 102 356 91 75 306 300 301 268 265 272 275 261 245 219 224 220 245 329 327 251 237 220
292 290 282 279 289 294 285 283 300 309 308 307 308 309 315 313 327 236 243 234 111 132 128 23 15 297 303 323 333 312 292 288 273 243 248 236 227 222 210 210 245 280 260 230
275 273 273 277 271 275 284 286 284 289 300 311 330 335 30 19 274 250 250 137 145 177 169 169 251 290 346 352 299 276 273 262 245 247 253 240 231 224 218 214 219 222 213 220
275 268 256 254 258 258 266 270 268 274 287 295 301 312 16 4 324 339 83 106 162 240 250 135 355 20 15 323 307 285 272 283 289 268 259 248 237 236 232 227 226 217 220 213
251 248 246 245 246 248 255 258 270 275 285 286 285 305 143 176 215 48 102 161 205 271 301 65 34 5 336 319 307 291 283 280 285 287 265 252 243 238 249 241 234 231 225 208
256 258 259 257 256 252 260 270 279 277 270 271 256 205 210 216 212 208 207 190 183 241 113 92 47 335 314 317 319 305 280 258 260 264 265 256 260 245 244 244 234 234 233 215
261 260 265 269 272 273 269 265 270 269 258 238 218 217 225 226 212 186 202 213 210 241 240 72 355 331 324 319 329 314 302 285 274 271 273 278 269 257 244 250 247 235 224 208
252 257 264 276 275 272 274 271 268 249 232 209 205 219 227 207 164 149 199 255 242 210 101 28 331 329 328 313 332 308 296 287 280 275 272 269 268 271 262 256 254 244 234 225
240 236 246 258 265 268 267 257 239 230 216 192 201 213 215 197 178 195 212 235 261 105 123 207 316 316 325 321 310 294 288 285 278 276 274 270 270 272 272 269 261 248 239 242
260 247 249 261 261 276 283 266 233 221 206 192 197 200 195 207 218 232 233 210 190 158 131 239 314 318 326 326 297 290 288 285 281 280 275 269 267 270 274 275 269 256 244 241
311 306 302 293 286 297 325 322 262 230 217 210 212 209 210 222 221 221 246 205 138 141 11 263 287 302 311 308 291 290 290 290 288 284 276 269 266 268 271 276 274 267 261 259
305 305 303 297 296 289 278 282 284 272 247 235 214 213 219 222 243 250 195 178 206 253 258 238 262 280 290 279 275 281 284 284 283 285 289 289 286 280 274 273 271 268 267 271
275 277 277 272 264 257 252 254 260 241 224 230 235 231 245 229 215 200 186 210 229 256 264 245 256 269 273 268 270 279 286 286 292 298 295 294 292 289 285 283 282 279 272 268
285 273 265 264 262 256 249 232 226 219 214 220 236 244 301 343 334 152 192 217 234 254 264 256 250 255 258 264 270 274 279 289 296 297 291 290 292 292 286 284 287 283 278 274
273 269 253 240 239 233 233 227 230 241 241 233 239 248 264 270 258 251 255 249 247 252 259 259 254 256 261 266 268 268 271 276 280 285 289 287 287 282 279 280 278 277 276 276